Location: Zapote
(9.9191°N, 84.0597°W)
Time: 09:19:52
(UTC-06:00)

Courier 1B Rocket - Pass Details

Date: 10 March 2021
Orbit: 920 x 1202 km, 28.2° (Epoch: 09 April)

Event Time Altitude Azimuth Distance (km) Brightness Sun altitude
Rises 18:02:12 0° 299° (WNW) 3,953 9.3 -4.5°
Reaches altitude 10° 18:04:55 10° 300° (WNW) 3,028 8.6 -5.2°
Maximum altitude 18:12:32 84° 29° (NNE) 1,189 5.5 -7.1°
Drops below altitude 10° 18:20:23 10° 117° (ESE) 3,128 7.1 -9.0°
Enters shadow 18:21:30 - 117° (ESE) 3,500 7.4 -9.3°
